| time (UTC) | temp C | wind direction | speed KPH | gust KPH | rain 1hr cm | rain 24hr cm | rain mn cm | humidity % | barometer mb |
| 20260504030138 | 9 | 148 | 1.6 | 4.8 | 0.00 | 0.00 | 0.00 | 56 | 1012.2 |
| 20260504025634 | 9 | 198 | 3.2 | 4.8 | 0.00 | 0.00 | 0.00 | 56 | 1012.3 |
| 20260504025131 | 9 | 180 | 4.8 | 9.7 | 0.00 | 0.00 | 0.00 | 55 | 1012.3 |
| 20260504024628 | 9 | 142 | 0.0 | 3.2 | 0.00 | 0.00 | 0.00 | 56 | 1012.3 |
| 20260504024125 | 9 | 145 | 0.0 | 3.2 | 0.00 | 0.00 | 0.00 | 55 | 1012.2 |
| 20260504023622 | 9 | 129 | 0.0 | 3.2 | 0.00 | 0.00 | 0.00 | 56 | 1012.4 |
| 20260504023118 | 10 | 113 | 1.6 | 3.2 | 0.00 | 0.00 | 0.00 | 55 | 1012.3 |
| 20260504022614 | 10 | 160 | 1.6 | 3.2 | 0.00 | 0.00 | 0.00 | 55 | 1012.4 |
| 20260504022110 | 10 | 177 | 3.2 | 4.8 | 0.00 | 0.00 | 0.00 | 55 | 1012.4 |
| 20260504021608 | 10 | 160 | 1.6 | 4.8 | 0.00 | 0.00 | 0.00 | 55 | 1012.4 |
| 20260504021105 | 10 | 206 | 1.6 | 4.8 | 0.00 | 0.00 | 0.00 | 54 | 1012.4 |
| 20260504020602 | 10 | 124 | 1.6 | 3.2 | 0.00 | 0.00 | 0.00 | 53 | 1012.3 |
| 20260504020058 | 10 | 153 | 0.0 | 3.2 | 0.00 | 0.00 | 0.00 | 53 | 1012.5 |
| 20260504015554 | 10 | 86 | 0.0 | 3.2 | 0.00 | 0.00 | 0.00 | 52 | 1012.5 |
| 20260504015050 | 10 | 147 | 0.0 | 4.8 | 0.00 | 0.00 | 0.00 | 51 | 1012.3 |
| 20260504014547 | 10 | 177 | 0.0 | 4.8 | 0.00 | 0.00 | 0.00 | 51 | 1012.5 |
| 20260504014044 | 10 | 198 | 3.2 | 4.8 | 0.00 | 0.00 | 0.00 | 52 | 1012.3 |
| 20260504013541 | 10 | 123 | 1.6 | 4.8 | 0.00 | 0.00 | 0.00 | 51 | 1012.4 |
| 20260504013038 | 10 | 165 | 0.0 | 4.8 | 0.00 | 0.00 | 0.00 | 51 | 1012.1 |
| 20260504012536 | 10 | 123 | 1.6 | 3.2 | 0.00 | 0.00 | 0.00 | 50 | 1012.3 |
| 20260504012033 | 11 | 89 | 0.0 | 4.8 | 0.00 | 0.00 | 0.00 | 51 | 1012.3 |
| 20260504011529 | 11 | 194 | 1.6 | 4.8 | 0.00 | 0.00 | 0.00 | 50 | 1012.3 |
| 20260504011020 | 11 | 211 | 1.6 | 4.8 | 0.00 | 0.00 | 0.00 | 51 | 1012.3 |
| 20260504010516 | 11 | 131 | 1.6 | 6.4 | 0.00 | 0.00 | 0.00 | 50 | 1012.3 |
| 20260504010012 | 11 | 158 | 1.6 | 6.4 | 0.00 | 0.00 | 0.00 | 49 | 1012.2 |
| 20260504005509 | 11 | 253 | 3.2 | 4.8 | 0.00 | 0.00 | 0.00 | 50 | 1012.3 |
| 20260504005007 | 11 | 255 | 3.2 | 3.2 | 0.00 | 0.00 | 0.00 | 50 | 1012.3 |
| 20260504004504 | 11 | 199 | 3.2 | 4.8 | 0.00 | 0.00 | 0.00 | 49 | 1012.2 |
| 20260504004001 | 11 | 188 | 1.6 | 4.8 | 0.00 | 0.00 | 0.00 | 49 | 1012.1 |
| 20260504003456 | 11 | 260 | 0.0 | 6.4 | 0.00 | 0.00 | 0.00 | 48 | 1012.3 |
| 20260504002954 | 11 | 89 | 0.0 | 11.3 | 0.00 | 0.00 | 0.00 | 48 | 1012.0 |
| 20260504002451 | 11 | 177 | 4.8 | 8.0 | 0.00 | 0.00 | 0.00 | 48 | 1012.2 |
| 20260504001948 | 11 | 185 | 4.8 | 9.7 | 0.00 | 0.00 | 0.00 | 48 | 1012.2 |
| 20260504001445 | 12 | 200 | 3.2 | 4.8 | 0.00 | 0.00 | 0.00 | 47 | 1012.2 |
| 20260504000942 | 12 | 200 | 1.6 | 8.0 | 0.00 | 0.00 | 0.00 | 47 | 1012.2 |
| 20260504000439 | 12 | 121 | 3.2 | 11.3 | 0.00 | 0.00 | 0.00 | 46 | 1012.3 |
| 20260503235937 | 12 | 202 | 6.4 | 11.3 | 0.00 | 0.00 | 0.00 | 46 | 1012.2 |
| 20260503235434 | 12 | 273 | 6.4 | 14.5 | 0.00 | 0.00 | 0.00 | 45 | 1012.1 |
| 20260503234931 | 12 | 236 | 6.4 | 11.3 | 0.00 | 0.00 | 0.00 | 45 | 1012.2 |
| 20260503234429 | 12 | 35 | 0.0 | 11.3 | 0.00 | 0.00 | 0.00 | 46 | 1012.3 |
| 20260503233927 | 12 | 102 | 4.8 | 8.0 | 0.00 | 0.00 | 0.00 | 45 | 1012.2 |
| 20260503233423 | 12 | 248 | 4.8 | 12.9 | 0.00 | 0.00 | 0.00 | 45 | 1012.1 |
| 20260503232920 | 12 | 112 | 1.6 | 14.5 | 0.00 | 0.00 | 0.00 | 45 | 1012.2 |
| 20260503232417 | 12 | 145 | 1.6 | 12.9 | 0.00 | 0.00 | 0.00 | 45 | 1012.3 |
| 20260503231915 | 13 | 265 | 3.2 | 19.3 | 0.00 | 0.00 | 0.00 | 44 | 1012.2 |
| 20260503231412 | 12 | 291 | 3.2 | 9.7 | 0.00 | 0.00 | 0.00 | 46 | 1012.4 |
| 20260503230908 | 13 | 352 | 3.2 | 8.0 | 0.00 | 0.00 | 0.00 | 45 | 1012.4 |
| 20260503230404 | 13 | 209 | 3.2 | 12.9 | 0.00 | 0.00 | 0.00 | 44 | 1012.3 |
| 20260503225902 | 13 | 183 | 3.2 | 12.9 | 0.00 | 0.00 | 0.00 | 45 | 1012.3 |
| 20260503225358 | 13 | 97 | 4.8 | 8.0 | 0.00 | 0.00 | 0.00 | 44 | 1012.3 |
| 20260503224854 | 13 | 180 | 4.8 | 11.3 | 0.00 | 0.00 | 0.00 | 45 | 1012.4 |
| 20260503224351 | 13 | 214 | 3.2 | 16.1 | 0.00 | 0.00 | 0.00 | 45 | 1012.2 |
| 20260503223849 | 13 | 228 | 4.8 | 14.5 | 0.00 | 0.00 | 0.00 | 43 | 1012.4 |
| 20260503223347 | 13 | 147 | 4.8 | 19.3 | 0.00 | 0.00 | 0.00 | 42 | 1012.5 |
| 20260503222842 | 13 | 129 | 6.4 | 14.5 | 0.00 | 0.00 | 0.00 | 42 | 1012.5 |
| 20260503222341 | 14 | 293 | 3.2 | 11.3 | 0.00 | 0.00 | 0.00 | 45 | 1012.3 |
| 20260503221838 | 13 | 268 | 12.9 | 19.3 | 0.00 | 0.00 | 0.00 | 40 | 1012.4 |
| 20260503221337 | 13 | 84 | 3.2 | 19.3 | 0.00 | 0.00 | 0.00 | 43 | 1012.3 |
| 20260503220833 | 13 | 172 | 3.2 | 20.9 | 0.00 | 0.00 | 0.00 | 43 | 1012.3 |
| 20260503220330 | 13 | 225 | 8.0 | 20.9 | 0.00 | 0.00 | 0.00 | 42 | 1012.4 |
| 20260503215827 | 14 | 212 | 3.2 | 17.7 | 0.00 | 0.00 | 0.00 | 40 | 1012.2 |
| 20260503215324 | 15 | 175 | 6.4 | 22.5 | 0.00 | 0.00 | 0.00 | 38 | 1012.3 |
| 20260503214822 | 15 | 198 | 9.7 | 14.5 | 0.00 | 0.00 | 0.00 | 38 | 1012.4 |
| 20260503214318 | 13 | 177 | 3.2 | 11.3 | 0.00 | 0.00 | 0.00 | 43 | 1012.5 |
| 20260503213815 | 13 | 155 | 8.0 | 19.3 | 0.00 | 0.00 | 0.00 | 40 | 1012.3 |
| 20260503213313 | 15 | 283 | 6.4 | 14.5 | 0.00 | 0.00 | 0.00 | 38 | 1012.3 |
| 20260503212809 | 15 | 173 | 3.2 | 22.5 | 0.00 | 0.00 | 0.00 | 37 | 1012.1 |
| 20260503212308 | 16 | 183 | 4.8 | 11.3 | 0.00 | 0.00 | 0.00 | 40 | 1012.2 |
| 20260503211805 | 15 | 223 | 4.8 | 6.4 | 0.00 | 0.00 | 0.00 | 37 | 1012.1 |
| 20260503211302 | 15 | 86 | 3.2 | 8.0 | 0.00 | 0.00 | 0.00 | 41 | 1012.2 |
| 20260503210802 | 15 | 244 | 6.4 | 9.7 | 0.00 | 0.00 | 0.00 | 43 | 1012.3 |
| 20260503210300 | 13 | 272 | 4.8 | 14.5 | 0.00 | 0.00 | 0.00 | 43 | 1012.4 |
| 20260503205754 | 13 | 320 | 6.4 | 14.5 | 0.00 | 0.00 | 0.00 | 39 | 1012.3 |
| 20260503205251 | 15 | 268 | 9.7 | 25.7 | 0.00 | 0.00 | 0.00 | 40 | 1012.2 |
| 20260503204748 | 13 | 219 | 3.2 | 9.7 | 0.00 | 0.00 | 0.00 | 41 | 1012.5 |
| 20260503204246 | 14 | 272 | 4.8 | 14.5 | 0.00 | 0.00 | 0.00 | 43 | 1012.6 |
| 20260503203743 | 15 | 192 | 6.4 | 27.4 | 0.00 | 0.00 | 0.00 | 39 | 1012.5 |
| 20260503203240 | 13 | 337 | 1.6 | 9.7 | 0.00 | 0.00 | 0.00 | 43 | 1012.5 |
| 20260503202737 | 13 | 217 | 4.8 | 12.9 | 0.00 | 0.00 | 0.00 | 41 | 1012.7 |
| 20260503202235 | 13 | 214 | 4.8 | 11.3 | 0.00 | 0.00 | 0.00 | 44 | 1012.7 |
| 20260503201732 | 13 | 172 | 4.8 | 17.7 | 0.00 | 0.00 | 0.00 | 40 | 1012.7 |
| 20260503201230 | 15 | 200 | 9.7 | 22.5 | 0.00 | 0.00 | 0.00 | 39 | 1012.9 |
| 20260503200726 | 15 | 209 | 6.4 | 12.9 | 0.00 | 0.00 | 0.00 | 37 | 1012.9 |
| 20260503200223 | 13 | 207 | 8.0 | 17.7 | 0.00 | 0.00 | 0.00 | 40 | 1013.0 |
| 20260503195719 | 14 | 268 | 8.0 | 17.7 | 0.00 | 0.00 | 0.00 | 43 | 1012.9 |
| 20260503195216 | 14 | 219 | 4.8 | 14.5 | 0.00 | 0.00 | 0.00 | 41 | 1013.3 |
| 20260503194714 | 16 | 250 | 8.0 | 17.7 | 0.00 | 0.00 | 0.00 | 37 | 1013.1 |
| 20260503194210 | 15 | 357 | 3.2 | 9.7 | 0.00 | 0.00 | 0.00 | 40 | 1013.2 |
| 20260503193706 | 13 | 111 | 3.2 | 12.9 | 0.00 | 0.00 | 0.00 | 41 | 1013.3 |
| 20260503193202 | 14 | 207 | 6.4 | 30.6 | 0.00 | 0.00 | 0.00 | 39 | 1013.3 |
| 20260503192657 | 15 | 172 | 3.2 | 14.5 | 0.00 | 0.00 | 0.00 | 42 | 1013.5 |
| 20260503192153 | 13 | 310 | 4.8 | 27.4 | 0.00 | 0.00 | 0.00 | 41 | 1013.5 |
| 20260503191650 | 13 | 246 | 6.4 | 22.5 | 0.00 | 0.00 | 0.00 | 41 | 1013.7 |
| 20260503191147 | 13 | 181 | 9.7 | 16.1 | 0.00 | 0.00 | 0.00 | 41 | 1013.8 |
| 20260503190644 | 14 | 267 | 8.0 | 12.9 | 0.00 | 0.00 | 0.00 | 41 | 1013.8 |
| 20260503190141 | 13 | 252 | 6.4 | 12.9 | 0.00 | 0.00 | 0.00 | 43 | 1013.8 |
| 20260503185637 | 15 | 165 | 3.2 | 20.9 | 0.00 | 0.00 | 0.00 | 39 | 1013.8 |
| 20260503185133 | 14 | 309 | 4.8 | 9.7 | 0.00 | 0.00 | 0.00 | 40 | 1013.7 |
| 20260503184628 | 13 | 244 | 8.0 | 24.1 | 0.00 | 0.00 | 0.00 | 43 | 1014.0 |
| 20260503184125 | 12 | 246 | 22.5 | 22.5 | 0.00 | 0.00 | 0.00 | 45 | 1014.3 |
| 20260503183621 | 12 | 311 | 6.4 | 14.5 | 0.00 | 0.00 | 0.00 | 49 | 1013.8 |
| 20260503183119 | 12 | 63 | 6.4 | 11.3 | 0.00 | 0.00 | 0.00 | 45 | 1014.3 |
| 20260503182617 | 14 | 238 | 6.4 | 12.9 | 0.00 | 0.00 | 0.00 | 43 | 1014.0 |
| 20260503182115 | 13 | 207 | 4.8 | 17.7 | 0.00 | 0.00 | 0.00 | 40 | 1014.4 |
| 20260503181611 | 13 | 229 | 6.4 | 9.7 | 0.00 | 0.00 | 0.00 | 45 | 1014.3 |
| 20260503181108 | 13 | 183 | 4.8 | 14.5 | 0.00 | 0.00 | 0.00 | 40 | 1014.4 |
| 20260503180605 | 13 | 262 | 12.9 | 25.7 | 0.00 | 0.00 | 0.00 | 41 | 1014.2 |
| 20260503180103 | 14 | 263 | 12.9 | 25.7 | 0.00 | 0.00 | 0.00 | 41 | 1014.3 |
| 20260503175600 | 13 | 264 | 4.8 | 12.9 | 0.00 | 0.00 | 0.00 | 40 | 1014.5 |
| 20260503175057 | 12 | 297 | 4.8 | 12.9 | 0.00 | 0.00 | 0.00 | 48 | 1014.6 |
| 20260503174553 | 12 | 200 | 3.2 | 9.7 | 0.00 | 0.00 | 0.00 | 47 | 1014.7 |
| 20260503174050 | 13 | 230 | 9.7 | 12.9 | 0.00 | 0.00 | 0.00 | 41 | 1014.8 |
| 20260503173545 | 12 | 267 | 4.8 | 14.5 | 0.00 | 0.00 | 0.00 | 45 | 1014.8 |
| 20260503173042 | 12 | 155 | 9.7 | 17.7 | 0.00 | 0.00 | 0.00 | 44 | 1014.8 |
| 20260503172539 | 13 | 223 | 6.4 | 22.5 | 0.00 | 0.00 | 0.00 | 45 | 1014.8 |
| 20260503172036 | 12 | 124 | 0.0 | 8.0 | 0.00 | 0.00 | 0.00 | 46 | 1014.8 |
| 20260503171533 | 12 | 177 | 4.8 | 17.7 | 0.00 | 0.00 | 0.00 | 45 | 1015.1 |
| 20260503171030 | 13 | 222 | 8.0 | 16.1 | 0.00 | 0.00 | 0.00 | 49 | 1015.0 |
| 20260503170526 | 11 | 243 | 8.0 | 9.7 | 0.00 | 0.00 | 0.00 | 49 | 1014.8 |
| 20260503150913 | 9 | 211 | 12.9 | 16.1 | 0.00 | 0.00 | 0.00 | 47 | 1015.8 |
| 20260503150409 | 10 | 196 | 4.8 | 24.1 | 0.00 | 0.00 | 0.00 | 45 | 1015.8 |
| 20260503131303 | 6 | 260 | 4.8 | 19.3 | 0.00 | 0.00 | 0.00 | 74 | 1016.5 |
| 20260503130800 | 5 | 147 | 3.2 | 4.8 | 0.00 | 0.00 | 0.00 | 75 | 1016.5 |
| 20260503130257 | 5 | 139 | 4.8 | 11.3 | 0.00 | 0.00 | 0.00 | 77 | 1016.5 |
| 20260503110645 | 0 | 134 | 3.2 | 6.4 | 0.00 | 0.00 | 0.00 | 95 | 1015.4 |
| 20260503110142 | 0 | 125 | 4.8 | 6.4 | 0.00 | 0.00 | 0.00 | 95 | 1015.5 |
| 20260503100109 | 0 | 101 | 1.6 | 4.8 | 0.00 | 0.00 | 0.00 | 94 | 1014.9 |
| 20260503081451 | 0 | 139 | 3.2 | 3.2 | 0.00 | 0.00 | 0.00 | 94 | 1014.7 |
| 20260503080948 | 0 | 126 | 0.0 | 3.2 | 0.00 | 0.00 | 0.00 | 94 | 1014.7 |
| 20260503080439 | 0 | 122 | 0.0 | 3.2 | 0.00 | 0.00 | 0.00 | 94 | 1014.8 |
| 20260503072916 | 0 | 164 | 1.6 | 3.2 | 0.00 | 0.00 | 0.00 | 93 | 1014.5 |
| 20260503072413 | 0 | 89 | 0.0 | 3.2 | 0.00 | 0.00 | 0.00 | 93 | 1014.5 |
| 20260503071909 | 1 | 106 | 0.0 | 1.6 | 0.00 | 0.00 | 0.00 | 93 | 1014.7 |
| 20260503071402 | 1 | 120 | 0.0 | 3.2 | 0.00 | 0.00 | 0.00 | 93 | 1014.5 |
| 20260503070857 | 1 | 140 | 0.0 | 3.2 | 0.00 | 0.00 | 0.00 | 93 | 1014.6 |
| 20260503070355 | 1 | 124 | 0.0 | 1.6 | 0.00 | 0.00 | 0.00 | 93 | 1014.4 |
| 20260503060321 | 1 | 32 | 0.0 | 1.6 | 0.00 | 0.00 | 0.00 | 87 | 1014.8 |
| 20260503054809 | 1 | 135 | 0.0 | 1.6 | 0.00 | 0.00 | 0.00 | 87 | 1014.9 |
| 20260503054304 | 2 | 269 | 0.0 | 3.2 | 0.00 | 0.00 | 0.00 | 87 | 1014.8 |
| 20260503053802 | 2 | 147 | 0.0 | 1.6 | 0.00 | 0.00 | 0.00 | 87 | 1014.8 |
| 20260503053301 | 2 | 269 | 0.0 | 1.6 | 0.00 | 0.00 | 0.00 | 87 | 1014.8 |
| 20260503052756 | 2 | 32 | 0.0 | 0.0 | 0.00 | 0.00 | 0.00 | 88 | 1015.0 |
| 20260503052254 | 2 | 45 | 0.0 | 1.6 | 0.00 | 0.00 | 0.00 | 88 | 1014.9 |
| 20260503051748 | 2 | 44 | 0.0 | 1.6 | 0.00 | 0.00 | 0.00 | 88 | 1014.9 |
| 20260503051246 | 2 | 222 | 0.0 | 1.6 | 0.00 | 0.00 | 0.00 | 88 | 1015.1 |
| 20260503050742 | 2 | 245 | 0.0 | 3.2 | 0.00 | 0.00 | 0.00 | 88 | 1015.1 |
| 20260503050233 | 2 | 78 | 1.6 | 3.2 | 0.00 | 0.00 | 0.00 | 89 | 1015.1 |
| 20260503045731 | 2 | 286 | 0.0 | 3.2 | 0.00 | 0.00 | 0.00 | 89 | 1015.2 |
| 20260503045229 | 2 | 269 | 0.0 | 1.6 | 0.00 | 0.00 | 0.00 | 89 | 1015.0 |
| 20260503044725 | 2 | 279 | 0.0 | 1.6 | 0.00 | 0.00 | 0.00 | 89 | 1015.0 |
| 20260503044222 | 2 | 49 | 0.0 | 3.2 | 0.00 | 0.00 | 0.00 | 89 | 1015.2 |
| 20260503043719 | 2 | 283 | 0.0 | 1.6 | 0.00 | 0.00 | 0.00 | 88 | 1015.0 |
| 20260503043216 | 2 | 25 | 0.0 | 3.2 | 0.00 | 0.00 | 0.00 | 89 | 1015.3 |
| 20260503042712 | 2 | 287 | 0.0 | 0.0 | 0.00 | 0.00 | 0.00 | 89 | 1015.3 |
| 20260503042209 | 2 | 229 | 0.0 | 1.6 | 0.00 | 0.00 | 0.00 | 88 | 1015.2 |
| 20260503041705 | 2 | 31 | 0.0 | 1.6 | 0.00 | 0.00 | 0.00 | 88 | 1015.1 |
| 20260503041203 | 2 | 32 | 0.0 | 1.6 | 0.00 | 0.00 | 0.00 | 88 | 1015.0 |
| 20260503040700 | 2 | 336 | 0.0 | 3.2 | 0.00 | 0.00 | 0.00 | 87 | 1015.2 |
| 20260503040157 | 2 | 38 | 0.0 | 1.6 | 0.00 | 0.00 | 0.00 | 87 | 1015.2 |
| 20260503035654 | 2 | 31 | 0.0 | 3.2 | 0.00 | 0.03 | 0.03 | 86 | 1015.1 |
| 20260503035152 | 2 | 76 | 0.0 | 1.6 | 0.00 | 0.03 | 0.03 | 86 | 1015.1 |
| 20260503034649 | 2 | 44 | 0.0 | 1.6 | 0.00 | 0.03 | 0.03 | 84 | 1015.2 |
| 20260503034146 | 2 | 44 | 0.0 | 3.2 | 0.00 | 0.03 | 0.03 | 84 | 1015.2 |
| 20260503033643 | 2 | 33 | 3.2 | 3.2 | 0.00 | 0.03 | 0.03 | 83 | 1015.1 |
| 20260503033140 | 2 | 55 | 0.0 | 0.0 | 0.00 | 0.03 | 0.03 | 82 | 1015.1 |
| 20260503032639 | 2 | 55 | 0.0 | 3.2 | 0.00 | 0.03 | 0.03 | 81 | 1015.2 |
| 20260503032137 | 3 | 25 | 3.2 | 3.2 | 0.00 | 0.03 | 0.03 | 79 | 1015.0 |
| 20260503031634 | 3 | 40 | 0.0 | 3.2 | 0.00 | 0.03 | 0.03 | 79 | 1015.2 |
| 20260503031132 | 3 | 35 | 0.0 | 4.8 | 0.00 | 0.03 | 0.03 | 78 | 1015.2 |
| 20260503030627 | 3 | 336 | 0.0 | 3.2 | 0.00 | 0.03 | 0.03 | 79 | 1015.2 |